Location: Gälforsberget
(66.6500°N, 22.4167°E)
Time: 14:59:54
(UTC+00:00)

Cosmos 2369 - Pass Details

Date: 11 April 2026
Orbit: 837 x 855 km, 71.0° (Epoch: 17 May)

Event Time Altitude Azimuth Distance (km) Brightness Sun altitude
Rises 19:45:16 0° 255° (WSW) 3,396 7.2 -9.0°
Reaches altitude 10° 19:47:44 10° 259° (WSW) 2,464 6.5 -9.2°
Maximum altitude 19:53:21 64° 341° (NNW) 933 4.2 -9.6°
Drops below altitude 10° 19:59:01 10° 63° (ENE) 2,479 6.0 -9.9°
Sets 20:01:31 0° 67° (ENE) 3,418 6.7 -10.1°
